[[{"header":{"parameterUnit":"m.s-1","parameterCategory":1,"la1":30.2991,"la2":30.254,"lo1":-89.0895,"lo2":-89.0444,"dy":0.0017,"dx":0.0017,"nx":28,"ny":28,"refTime":"2024-04-20T09:00:00:Z","depth":0,"parameterNumber":2,"parameterNumberName":"U-component_of_WINDS"},"data":[0,0,0,0,0,0,0,0,0,0,0,0,0,0,0,0,0,0,0,0,0,0,0,0,0,0,0,0,0,0,0,0,0,0,0,0,0,0,0,0,0,0,0,0,0,0,0,0,0,0,0,0,0,0,0,0,0,0,1.4773,1.4774,0,1.485,1.4851,1.4852,1.4839,1.4837,1.4836,1.4835,1.4918,1.4922,1.4925,0,0,0,0,0,0,0,0,0,0,0,0,0,1.4618,1.4621,1.4773,1.4774,1.4775,1.485,1.4851,1.4852,1.4839,1.4837,1.4836,1.4834,1.4917,1.4921,1.4926,0,0,0,0,0,0,0,0,0,0,0,0,0,1.4689,1.4622,1.4773,1.4777,1.4778,1.485,1.4851,1.4853,1.4839,1.4837,1.4835,1.4833,1.4916,1.4921,1.4926,1.4999,0,0,1.4942,1.4944,0,0,0,0,0,0,0,0,1.4685,1.4695,1.4776,1.4777,1.4778,1.4833,1.4827,1.4902,1.484,1.4816,1.4835,1.4832,1.4892,1.4899,1.4918,1.5003,1.5007,1.4943,1.4946,1.4948,1.495,0,0,0,0,0,0,0,1.468,1.4692,1.4804,1.4777,1.4779,1.4777,1.4785,1.4841,1.4865,1.4818,1.4817,1.4827,1.4892,1.4913,1.492,1.5008,1.4942,1.4947,1.495,1.4952,1.5158,1.516,0,0,0,0,0,0,1.4673,1.4688,1.4801,1.4806,1.4726,1.4781,1.479,1.4817,1.4864,1.4869,1.4828,1.4826,1.4905,1.4914,1.4923,1.5012,1.4948,1.4953,1.4956,1.5156,1.5159,1.5161,0,0,0,0,0,0,1.467,1.4684,1.4798,1.4747,1.4761,1.4786,1.4817,1.482,1.4841,1.4872,1.4876,1.4845,1.4904,1.4915,1.498,1.5015,1.4955,1.496,1.5153,1.5157,1.516,1.519,0,0,0,0,0,0,1.4666,1.4683,1.471,1.4747,1.4764,1.4853,1.4819,1.4823,1.4849,1.4847,1.4888,1.4893,1.4903,1.4972,1.4985,1.5021,1.4964,1.515,1.5155,1.5159,1.5186,1.5194,1.5201,0,0,0,0,0,1.466,1.4716,1.4711,1.4725,1.4798,1.4855,1.4864,1.4873,1.4852,1.488,1.49,1.4892,1.5009,1.4979,1.4994,1.5031,1.5148,1.5153,1.5158,1.5183,1.5193,1.5201,0,0,0,0,0,0,1.4683,1.4721,1.4716,1.4785,1.4817,1.4852,1.4888,1.4883,1.4923,1.4919,1.4929,1.4939,1.5005,1.5025,1.4991,1.5105,1.5076,1.5084,1.5089,1.5099,1.5106,1.51,1.4968,0,0,0,0,0,1.4696,1.4737,1.4769,1.4827,1.4843,1.4863,1.4888,1.4892,1.4926,1.494,1.4964,1.4999,1.5043,1.5072,1.5115,1.5189,1.5199,1.5222,1.523,1.5236,1.5243,1.5284,1.5295,1.5178,1.5178,1.5178,0,0,1.4723,1.4749,1.4775,1.4832,1.4857,1.4902,1.4874,1.4922,1.4956,1.4947,1.5009,1.5029,1.5068,1.5138,1.517,1.5157,1.5277,1.5242,1.5247,1.5251,1.5291,1.5302,1.5312,1.5182,1.5181,1.5181,0,0,1.4795,1.4819,1.487,1.4895,1.4933,1.4946,1.4958,1.4995,1.5007,1.5069,1.5064,1.5105,1.5181,1.5209,1.5234,1.5317,1.5312,1.5331,1.537,1.541,1.542,1.5428,1.5458,1.5469,1.5338,1.5338,1.5338,0,1.4825,1.489,1.4897,1.4946,1.4971,1.4965,1.5017,1.5042,1.5092,1.5111,1.5095,1.519,1.5216,1.5293,1.5313,1.5333,1.5348,1.5326,1.5417,1.5426,1.5434,1.5463,1.5474,1.534,1.534,1.534,1.5339,0,1.4925,1.497,1.5007,1.5054,1.5085,1.5135,1.5151,1.5181,1.5182,1.5197,1.5262,1.5293,1.5341,1.536,1.5363,1.5438,1.5428,1.5415,1.5386,1.5447,1.5474,1.5486,1.5343,1.5342,1.5342,1.5341,0,0,1.5013,1.5064,1.5077,1.5099,1.514,1.5176,1.5227,1.5273,1.5299,1.5334,1.5378,1.5442,1.543,1.5458,1.5464,1.5499,1.5564,1.5481,1.5483,1.5496,1.565,1.566,1.5672,1.5561,1.5563,1.5564,1.5646,0,1.509,1.5177,1.5185,1.5265,1.5307,1.5302,1.5346,1.5377,1.5393,1.5433,1.545,1.5496,1.5476,1.5493,1.5528,1.5549,1.5595,1.5543,1.5603,1.5605,1.5593,1.5686,1.5697,1.5773,1.5657,1.5659,1.566,0,1.519,1.5227,1.531,1.5346,1.5364,1.5403,1.5447,1.5484,1.552,1.5529,1.556,1.5561,1.5615,1.5584,1.5659,1.5623,1.5648,1.5662,1.5666,1.5672,1.5636,1.5696,1.5797,1.5809,1.5677,1.5676,1.5675,0,1.5247,1.5317,1.5376,1.5395,1.5438,1.5466,1.5485,1.5519,1.5546,1.5585,1.5603,1.5648,1.5673,1.5709,1.5723,1.5699,1.5797,1.5767,1.5808,1.5807,1.5829,1.5827,1.5936,1.5844,1.5844,1.5844,1.5844,0,1.5331,1.5382,1.5402,1.5438,1.5496,1.5506,1.5563,1.5581,1.5611,1.5652,1.5651,1.569,1.5705,1.5747,1.5759,1.582,1.5831,1.5841,1.5843,1.5841,1.584,1.5858,1.5853,1.5847,1.5846,1.5846,1.5845,0,1.5404,1.5419,1.5483,1.5518,1.5528,1.5569,1.56,1.5636,1.5651,1.5703,1.5716,1.574,1.579,1.5807,1.5867,1.5875,1.5946,1.5944,1.5933,1.5934,1.5973,1.597,1.6098,1.6116,1.6012,1.6013,1.6014,0,1.5456,1.5496,1.5535,1.5561,1.5582,1.5625,1.5653,1.5664,1.5693,1.5737,1.5768,1.5817,1.5856,1.5935,1.5959,1.6006,1.6005,1.6047,1.6012,1.6009,1.6006,1.6004,1.6008,1.6053,1.6055,1.6055,1.6056,0,1.5549,1.5554,1.5594,1.5636,1.5669,1.5704,1.5737,1.5759,1.5776,1.5809,1.5859,1.5889,1.595,1.5999,1.6046,1.6068,1.6066,1.6067,1.6079,1.6077,1.6069,1.6074,1.5951,1.6064,1.6063,1.6063,1.6062,1.6062,1.5613,1.5648,1.5681,1.5725,1.5751,1.5783,1.5818,1.5837,1.5878,1.5928,1.5932,1.5986,1.6022,1.6085,1.6109,1.6153,1.6141,1.6158,1.6163,1.6167,1.617,1.6062,1.6161,1.6161,1.6161,1.6161,1.6161,0,1.5706,1.5727,1.5767,1.5813,1.5849,1.5842,1.5878,1.5909,1.5955,1.5988,1.6027,1.6084,1.6132,1.6159,1.6207,1.6237,1.6237,1.6249,1.6247,1.6252,1.6177,1.6162,1.6248,1.6248,1.6248,1.6248,1.6248,1.6248,1.5758,1.5816,1.5826,1.5898,1.5919,1.597,1.5992,1.6021,1.6047,1.6111,1.615,1.6167,1.6199,1.6249,1.6293,1.63,1.6318,1.6331,1.6337,1.6267,1.6258,1.6249,1.6235,1.6335,1.6335,1.6409,1.641,1.641]},{"header":{"parameterUnit":"m.s-1","parameterCategory":1,"la1":30.2991,"la2":30.254,"lo1":-89.0895,"lo2":-89.0444,"dy":0.0017,"dx":0.0017,"nx":28,"ny":28,"refTime":"2024-04-20T09:00:00:Z","depth":0,"parameterNumber":3,"parameterNumberName":"V-component_of_WINDS"},"data":[0,0,0,0,0,0,0,0,0,0,0,0,0,0,0,0,0,0,0,0,0,0,0,0,0,0,0,0,0,0,0,0,0,0,0,0,0,0,0,0,0,0,0,0,0,0,0,0,0,0,0,0,0,0,0,0,0,0,2.5761,2.5763,0,2.5916,2.5918,2.5919,2.5929,2.5927,2.5925,2.5924,2.6084,2.609,2.6096,0,0,0,0,0,0,0,0,0,0,0,0,0,2.5475,2.548,2.5761,2.5763,2.5765,2.5916,2.5918,2.592,2.5929,2.5927,2.5925,2.5923,2.6082,2.6089,2.6096,0,0,0,0,0,0,0,0,0,0,0,0,0,2.5611,2.5482,2.5761,2.5788,2.5792,2.5915,2.5918,2.592,2.593,2.5927,2.5924,2.5922,2.608,2.6089,2.6097,2.6205,0,0,2.6124,2.6128,0,0,0,0,0,0,0,0,2.5603,2.5622,2.5782,2.5786,2.5791,2.59,2.5876,2.6016,2.593,2.5877,2.5924,2.5921,2.6025,2.6038,2.6073,2.6213,2.622,2.6125,2.6131,2.6134,2.6137,0,0,0,0,0,0,0,2.5594,2.5615,2.5822,2.5784,2.579,2.5792,2.5809,2.5902,2.5964,2.5882,2.5883,2.5901,2.6027,2.6065,2.6077,2.6222,2.6125,2.6133,2.6138,2.6142,2.6457,2.646,0,0,0,0,0,0,2.5579,2.5607,2.5817,2.5827,2.5689,2.58,2.5818,2.5868,2.5963,2.5975,2.5903,2.5901,2.6051,2.6067,2.6083,2.6216,2.6134,2.6143,2.6148,2.6454,2.6458,2.6461,0,0,0,0,0,0,2.5573,2.5598,2.5811,2.5717,2.5745,2.5807,2.5863,2.5872,2.591,2.5979,2.5991,2.593,2.6049,2.607,2.6175,2.6221,2.6147,2.6155,2.6451,2.6455,2.646,2.6482,0,0,0,0,0,0,2.5565,2.5596,2.5637,2.5718,2.575,2.59,2.5866,2.5877,2.5925,2.5923,2.6008,2.6019,2.6049,2.6161,2.6183,2.6232,2.6162,2.6447,2.6453,2.6458,2.6477,2.6486,2.6494,0,0,0,0,0,2.5554,2.5637,2.5639,2.5664,2.5803,2.5903,2.5921,2.5953,2.5929,2.5971,2.6015,2.6016,2.6212,2.6172,2.6197,2.6249,2.6444,2.6451,2.6458,2.6473,2.6485,2.6494,0,0,0,0,0,0,2.5561,2.5649,2.5651,2.5763,2.5825,2.5904,2.5958,2.5964,2.6035,2.6031,2.6068,2.6087,2.619,2.623,2.6183,2.6358,2.6326,2.6338,2.6329,2.634,2.6349,2.6337,2.6169,0,0,0,0,0,2.5575,2.5648,2.5721,2.5813,2.5844,2.5895,2.594,2.596,2.6026,2.6052,2.6104,2.6169,2.6245,2.6295,2.6369,2.6482,2.6501,2.6531,2.6539,2.6546,2.6556,2.662,2.6634,2.6484,2.6484,2.6484,0,0,2.5605,2.5662,2.5707,2.5815,2.5866,2.5941,2.5918,2.5999,2.6055,2.6065,2.6166,2.6207,2.6281,2.6391,2.6441,2.6427,2.6602,2.6555,2.656,2.6567,2.6628,2.6642,2.6655,2.6489,2.6488,2.6487,0,0,2.5699,2.575,2.5832,2.5882,2.5959,2.5993,2.6012,2.609,2.6117,2.6219,2.6228,2.6296,2.6426,2.6479,2.6523,2.6636,2.664,2.6659,2.6705,2.6766,2.6778,2.6788,2.6829,2.6843,2.6669,2.6669,2.6669,0,2.5728,2.5842,2.5873,2.5954,2.6001,2.6013,2.6096,2.6144,2.6241,2.6274,2.6256,2.6419,2.647,2.6592,2.6619,2.6654,2.6678,2.665,2.6773,2.6784,2.6795,2.6834,2.6849,2.6671,2.6671,2.667,2.667,0,2.5873,2.5951,2.6008,2.6101,2.6155,2.6236,2.628,2.6331,2.6346,2.6381,2.6485,2.6547,2.6633,2.6663,2.6678,2.6787,2.6776,2.6765,2.6733,2.681,2.6848,2.6863,2.6674,2.6673,2.6672,2.6672,0,0,2.5976,2.6084,2.6105,2.6147,2.6231,2.6293,2.6375,2.6459,2.6502,2.6568,2.6638,2.6747,2.6738,2.6788,2.6809,2.6862,2.6948,2.6845,2.6847,2.6862,2.7072,2.708,2.7097,2.695,2.6953,2.6956,2.7066,0,2.608,2.6226,2.6256,2.6382,2.6455,2.6467,2.6538,2.6598,2.6633,2.6701,2.674,2.6817,2.6799,2.6829,2.6882,2.6926,2.6991,2.6919,2.7017,2.702,2.6998,2.7117,2.7126,2.7227,2.7081,2.7083,2.7085,0,2.6221,2.629,2.6423,2.6498,2.6529,2.6593,2.6672,2.6736,2.6804,2.6826,2.6881,2.6896,2.6982,2.6945,2.7064,2.7015,2.7056,2.7084,2.7089,2.71,2.7058,2.7131,2.726,2.7275,2.7108,2.7107,2.7105,0,2.6283,2.6409,2.6505,2.6541,2.663,2.6675,2.6714,2.6779,2.6828,2.6897,2.6929,2.7007,2.705,2.7111,2.7147,2.7116,2.7263,2.7229,2.7284,2.7283,2.7316,2.7313,2.7453,2.7341,2.7341,2.7341,2.734,0,2.6397,2.6478,2.6535,2.6594,2.6685,2.6719,2.6809,2.6848,2.6906,2.6973,2.6987,2.705,2.7093,2.7162,2.7191,2.7286,2.7305,2.7325,2.7332,2.7325,2.7322,2.7353,2.7347,2.7345,2.7344,2.7343,2.7342,0,2.6482,2.6523,2.6629,2.6704,2.6725,2.6789,2.6854,2.6912,2.6947,2.7032,2.7054,2.7109,2.7191,2.7233,2.7335,2.7354,2.7461,2.7463,2.7438,2.7441,2.7494,2.7488,2.7659,2.7683,2.7555,2.7556,2.7557,0,2.6552,2.6615,2.6697,2.6743,2.6783,2.6856,2.6905,2.6941,2.6992,2.7073,2.7122,2.7204,2.7272,2.7402,2.7452,2.753,2.7535,2.7589,2.7547,2.7537,2.7536,2.7533,2.7539,2.7597,2.7598,2.7599,2.76,0,2.6672,2.6689,2.6759,2.6836,2.6894,2.6957,2.7019,2.7055,2.7101,2.7157,2.7241,2.7293,2.7397,2.7479,2.7561,2.7602,2.7609,2.7613,2.763,2.7623,2.7606,2.7616,2.7459,2.7609,2.7608,2.7607,2.7607,2.7607,2.6753,2.6809,2.6875,2.6952,2.7002,2.706,2.7118,2.716,2.723,2.7317,2.7333,2.7422,2.7488,2.7599,2.7642,2.7712,2.77,2.7725,2.7731,2.7737,2.774,2.7594,2.7727,2.7727,2.7727,2.7726,2.7726,0,2.6873,2.6916,2.6987,2.7073,2.7134,2.7134,2.7202,2.7253,2.7331,2.7392,2.7458,2.7554,2.7633,2.7688,2.7769,2.7814,2.782,2.7834,2.7832,2.7841,2.7745,2.7723,2.7829,2.7829,2.7829,2.7829,2.7829,2.7829,2.6944,2.7039,2.7063,2.7183,2.7226,2.7312,2.7351,2.7404,2.7453,2.7559,2.7625,2.766,2.7719,2.7804,2.7876,2.7891,2.792,2.7935,2.7949,2.7859,2.7848,2.7838,2.7817,2.7941,2.7941,2.8039,2.804,2.8041]}]]